DAL3111 KATL-KBTR

Flight info

Callsign DAL3111
Flight time N/A
Altitude 30000
Route POUNC2 STEIT
Aircraft B712/M-SDFGHRWY/C

Departure

Time 2026-05-08 00:27
Airport Hartsfield Jackson Atlanta International Airport (KATL)

Arrival

Time N/A
Airport Baton Rouge Metropolitan Airport (KBTR)
Time Latitude Longitude Altitude Speed Heading
2026-05-08 00:04 33.64179 -84.43189 1035 ft 0 kts 270°
2026-05-08 00:14 33.64179 -84.43187 1035 ft 1 kts 270°
2026-05-08 00:15 33.64179 -84.43175 1035 ft 2 kts 277°
2026-05-08 00:15 33.64175 -84.43157 1035 ft 2 kts 288°
2026-05-08 00:15 33.64168 -84.43138 1035 ft 3 kts 301°
2026-05-08 00:15 33.64158 -84.43122 1035 ft 0 kts 310°
2026-05-08 00:19 33.64160 -84.43124 1035 ft 1 kts 313°
2026-05-08 00:19 33.64166 -84.43129 1035 ft 2 kts 325°
2026-05-08 00:20 33.64181 -84.43134 1035 ft 3 kts
2026-05-08 00:20 33.64205 -84.43132 1035 ft 4 kts
2026-05-08 00:20 33.64238 -84.43131 1035 ft 6 kts
2026-05-08 00:20 33.64285 -84.43131 1035 ft 8 kts 359°
2026-05-08 00:21 33.64342 -84.43131 1035 ft 9 kts
2026-05-08 00:21 33.64411 -84.43131 1035 ft 11 kts
2026-05-08 00:21 33.64462 -84.43063 1035 ft 13 kts 83°
2026-05-08 00:21 33.64462 -84.42948 1035 ft 15 kts 90°
2026-05-08 00:22 33.64463 -84.42818 1035 ft 17 kts 90°
2026-05-08 00:22 33.64471 -84.42673 1035 ft 18 kts 90°
2026-05-08 00:22 33.64471 -84.42511 1035 ft 20 kts 90°
2026-05-08 00:22 33.64471 -84.42334 1035 ft 22 kts 90°
2026-05-08 00:23 33.64521 -84.42161 1035 ft 23 kts 59°
2026-05-08 00:23 33.64544 -84.41967 1035 ft 24 kts 90°
2026-05-08 00:23 33.64545 -84.41757 1035 ft 26 kts 90°
2026-05-08 00:23 33.64546 -84.41536 1035 ft 27 kts 90°
2026-05-08 00:24 33.64545 -84.41304 1035 ft 28 kts 90°
2026-05-08 00:24 33.64545 -84.41063 1035 ft 29 kts 89°
2026-05-08 00:24 33.64547 -84.40878 1035 ft 17 kts 89°
2026-05-08 00:24 33.64572 -84.40741 1035 ft 17 kts 86°
2026-05-08 00:25 33.64573 -84.40650 1035 ft 6 kts 89°
2026-05-08 00:25 33.64578 -84.40605 1035 ft 5 kts 69°
2026-05-08 00:25 33.64604 -84.40576 1035 ft 6 kts 12°
2026-05-08 00:25 33.64644 -84.40574 1035 ft 5 kts 356°
2026-05-08 00:26 33.64674 -84.40588 1035 ft 5 kts 314°
2026-05-08 00:26 33.64681 -84.40625 1035 ft 7 kts 270°
2026-05-08 00:26 33.64681 -84.40790 1035 ft 39 kts 270°
2026-05-08 00:26 33.64682 -84.41324 1035 ft 88 kts 270°
2026-05-08 00:27 33.64682 -84.42240 1035 ft 130 kts 270°
2026-05-08 00:27 33.64680 -84.43456 1137 ft 152 kts 271°
2026-05-08 00:27 33.64661 -84.44749 1467 ft 164 kts 271°
2026-05-08 00:27 33.64675 -84.46198 1727 ft 180 kts 273°
2026-05-08 00:28 33.64842 -84.47738 2108 ft 186 kts 284°
2026-05-08 00:28 33.65140 -84.49198 2833 ft 175 kts 286°
2026-05-08 00:28 33.65446 -84.50675 3108 ft 188 kts 287°
2026-05-08 00:28 33.65773 -84.52254 3252 ft 206 kts 286°
2026-05-08 00:29 33.66141 -84.54049 3340 ft 233 kts 285°
2026-05-08 00:29 33.66537 -84.56001 3730 ft 245 kts 285°
2026-05-08 00:29 33.66930 -84.57992 4343 ft 250 kts 284°
2026-05-08 00:29 33.67294 -84.60039 5038 ft 251 kts 283°
2026-05-08 00:30 33.67648 -84.62099 5727 ft 253 kts 282°
2026-05-08 00:30 33.68000 -84.64170 6450 ft 254 kts 282°
2026-05-08 00:30 33.68354 -84.66254 7143 ft 256 kts 282°
2026-05-08 00:30 33.68709 -84.68350 7846 ft 257 kts 281°
2026-05-08 00:31 33.69067 -84.70464 8542 ft 258 kts 281°
2026-05-08 00:31 33.69393 -84.72593 9221 ft 260 kts 277°
2026-05-08 00:31 33.69409 -84.74754 10043 ft 257 kts 264°
2026-05-08 00:31 33.68953 -84.76842 10647 ft 267 kts 251°
2026-05-08 00:32 33.68031 -84.78903 10780 ft 292 kts 242°
2026-05-08 00:32 33.66844 -84.80994 10875 ft 313 kts 239°
2026-05-08 00:32 33.65520 -84.83177 10966 ft 331 kts 238°
2026-05-08 00:32 33.64115 -84.85451 11050 ft 347 kts 238°
2026-05-08 00:33 33.62651 -84.87810 11215 ft 357 kts 238°
2026-05-08 00:33 33.61158 -84.90213 11617 ft 359 kts 238°
2026-05-08 00:33 33.59680 -84.92589 12111 ft 358 kts 238°
2026-05-08 00:33 33.58190 -84.94989 12571 ft 359 kts 238°
2026-05-08 00:34 33.56698 -84.97391 12990 ft 361 kts 238°
2026-05-08 00:34 33.55197 -84.99806 13437 ft 363 kts 239°
2026-05-08 00:34 33.53686 -85.02235 14013 ft 363 kts 239°
2026-05-08 00:34 33.52175 -85.04662 14534 ft 364 kts 239°
2026-05-08 00:35 33.50657 -85.07099 15078 ft 365 kts 239°
2026-05-08 00:35 33.49137 -85.09538 15608 ft 366 kts 239°
2026-05-08 00:35 33.47607 -85.11991 16072 ft 368 kts 239°
2026-05-08 00:35 33.46068 -85.14456 16591 ft 369 kts 239°
2026-05-08 00:36 33.44529 -85.16920 17063 ft 370 kts 239°
2026-05-08 00:36 33.43060 -85.19449 17522 ft 369 kts 244°
2026-05-08 00:36 33.41907 -85.22163 17984 ft 365 kts 251°
2026-05-08 00:36 33.41041 -85.25016 18388 ft 366 kts 255°
2026-05-08 00:37 33.40280 -85.27934 18756 ft 368 kts 256°
2026-05-08 00:37 33.39547 -85.30869 19148 ft 370 kts 256°
2026-05-08 00:37 33.38814 -85.33828 19496 ft 372 kts 256°
2026-05-08 00:38 33.37337 -85.39798 20215 ft 376 kts 256°
2026-05-08 00:38 33.36589 -85.42814 20525 ft 378 kts 256°
2026-05-08 00:38 33.35838 -85.45841 20846 ft 381 kts 256°
2026-05-08 00:38 33.35082 -85.48883 21153 ft 383 kts 256°
2026-05-08 00:39 33.34322 -85.51937 21479 ft 384 kts 256°
2026-05-08 00:39 33.33587 -85.54886 21758 ft 386 kts 256°
2026-05-08 00:39 33.32787 -85.58098 22054 ft 389 kts 256°